,,Stat5,,Stat1,,Stat2,,Stat3,,Stat4,,Wind1,,Wind1,
time,status,PA1M_AVG,status,PR1M_SUM,status,RH1M_AVG,status,SR1M_AVG,status,TA1M_AVG,status,W1dAve1m,status,W1sAve1m,
2001-12-16, 00:00:00,VALID,919.828,VALID,0,VALID,91.4881,VALID,-0.0679233,VALID,20.0359,VALID,24,VALID,0.498944,
2001-12-16, 00:01:00,VALID,919.822,VALID,0,VALID,91.0876,VALID,0,VALID,19.9999,VALID,21,VALID,0.414907,
2001-12-16, 00:02:00,VALID,919.827,VALID,0,VALID,91.1245,VALID,0,VALID,19.984,VALID,8,VALID,0.308594,
2001-12-16, 00:03:00,VALID,919.835,VALID,0,VALID,90.9858,VALID,0.0169808,VALID,19.9452,VALID,7,VALID,0.333882,
2001-12-16, 00:04:00,VALID,919.848,VALID,0,VALID,90.846,VALID,0,VALID,19.9162,VALID,13,VALID,0.563151,
2001-12-16, 00:05:00,VALID,919.86,VALID,0,VALID,91.3037,VALID,0,VALID,19.8998,VALID,23,VALID,0.559696,
2001-12-16, 00:06:00,VALID,919.856,VALID,0,VALID,91.5606,VALID,0,VALID,19.9035,VALID,16,VALID,0.522804,
2001-12-16, 00:07:00,VALID,919.858,VALID,0,VALID,91.3177,VALID,0,VALID,19.8675,VALID,13,VALID,0.758429,
2001-12-16, 00:08:00,VALID,919.871,VALID,0,VALID,91.4271,VALID,0.0169808,VALID,19.8351,VALID,28,VALID,0.824219,
2001-12-16, 00:09:00,VALID,919.865,VALID,0,VALID,91.4945,VALID,0.0169808,VALID,19.8486,VALID,22,VALID,0.85473,
2001-12-16, 00:10:00,VALID,919.86,VALID,0,VALID,91.2287,VALID,0,VALID,19.8506,VALID,26,VALID,0.736579,
2001-12-16, 00:11:00,VALID,919.863,VALID,0,VALID,91.0901,VALID,0,VALID,19.9067,VALID,28,VALID,0.477232,
2001-12-16, 00:12:00,VALID,919.852,VALID,0,VALID,90.9337,VALID,0,VALID,19.9485,VALID,28,VALID,0.195747,
2001-12-16, 00:13:00,VALID,919.838,VALID,0,VALID,90.4569,VALID,0,VALID,19.9549,VALID,19,VALID,0.361979,
2001-12-16, 00:14:00,VALID,919.835,VALID,0,VALID,90.1822,VALID,-0.0169808,VALID,19.9584,VALID,355,VALID,0.139974,
2001-12-16, 00:15:00,VALID,919.833,VALID,0,VALID,89.835,VALID,0,VALID,19.9517,VALID,347,VALID,0.00925164,
2001-12-16, 00:16:00,VALID,919.833,VALID,0,VALID,89.7231,VALID,0,VALID,19.9577,VALID,347,VALID,0,
2001-12-16, 00:17:00,VALID,919.846,VALID,0,VALID,90.0767,VALID,0,VALID,19.9803,VALID,347,VALID,0,
2001-12-16, 00:18:00,VALID,919.844,VALID,0,VALID,90.6247,VALID,0,VALID,20.0258,VALID,348,VALID,0.220954,
2001-12-16, 00:19:00,VALID,919.847,VALID,0,VALID,91.1105,VALID,-0.0339617,VALID,20.065,VALID,3,VALID,0.394866,
2001-12-16, 00:20:00,VALID,919.854,VALID,0,VALID,91.0672,VALID,0,VALID,20.0481,VALID,11,VALID,0.377534,
2001-12-16, 00:21:00,VALID,919.843,VALID,0,VALID,90.9337,VALID,0,VALID,20.0618,VALID,11,VALID,0.0533482,
2001-12-16, 00:22:00,VALID,919.831,VALID,0,VALID,90.982,VALID,-0.0169808,VALID,20.0581,VALID,11,VALID,0.328342,
2001-12-16, 00:23:00,VALID,919.823,VALID,0,VALID,91.5085,VALID,0,VALID,20.0608,VALID,17,VALID,0.341947,
2001-12-16, 00:24:00,VALID,919.814,VALID,0,VALID,91.3292,VALID,0,VALID,20.0583,VALID,16,VALID,0.330134,
2001-12-16, 00:25:00,VALID,919.8,VALID,0,VALID,91.9154,VALID,0,VALID,20.0392,VALID,14,VALID,0.432221,
2001-12-16, 00:26:00,VALID,919.778,VALID,0,VALID,92.513,VALID,0,VALID,20.0257,VALID,26,VALID,0.322991,
2001-12-16, 00:27:00,VALID,919.739,VALID,0,VALID,93.3294,VALID,-0.0169808,VALID,20.0456,VALID,26,VALID,0.41862,
2001-12-16, 00:28:00,VALID,919.722,VALID,0,VALID,93.5787,VALID,-0.0339617,VALID,20.0511,VALID,26,VALID,0.16645,
2001-12-16, 00:29:00,VALID,919.705,VALID,0,VALID,93.2582,VALID,0,VALID,20.0327,VALID,26,VALID,0.0579427,
2001-12-16, 00:30:00,VALID,919.69,VALID,0,VALID,93.421,VALID,0.0169808,VALID,19.9969,VALID,25,VALID,0,
2001-12-16, 00:31:00,VALID,919.692,VALID,0,VALID,93.145,VALID,0.0169808,VALID,19.9549,VALID,25,VALID,0,
2001-12-16, 00:32:00,VALID,919.683,VALID,0,VALID,93.2646,VALID,0,VALID,19.9288,VALID,25,VALID,0,
2001-12-16, 00:33:00,VALID,919.692,VALID,0,VALID,93.5888,VALID,0,VALID,19.9189,VALID,25,VALID,0,
2001-12-16, 00:34:00,VALID,919.684,VALID,0,VALID,94.0695,VALID,0,VALID,19.9713,VALID,24,VALID,0.176563,
2001-12-16, 00:35:00,VALID,919.675,VALID,0,VALID,93.9894,VALID,0,VALID,19.9872,VALID,24,VALID,0.127111,
2001-12-16, 00:36:00,VALID,919.682,VALID,0,VALID,93.538,VALID,0,VALID,19.9517,VALID,24,VALID,0,
2001-12-16, 00:37:00,VALID,919.69,VALID,0,VALID,93.2315,VALID,0,VALID,19.9323,VALID,24,VALID,0,
2001-12-16, 00:38:00,VALID,919.679,VALID,0,VALID,92.8971,VALID,0.0169808,VALID,19.8993,VALID,24,VALID,0,
2001-12-16, 00:39:00,VALID,919.693,VALID,0,VALID,92.7903,VALID,0,VALID,19.8998,VALID,24,VALID,0,
2001-12-16, 00:40:00,VALID,919.688,VALID,0,VALID,92.8729,VALID,0,VALID,19.9,VALID,24,VALID,0,
2001-12-16, 00:41:00,VALID,919.684,VALID,0,VALID,93.1323,VALID,0,VALID,19.9164,VALID,24,VALID,0.0046875,
2001-12-16, 00:42:00,VALID,919.661,VALID,0,VALID,92.9607,VALID,0.0339617,VALID,19.9027,VALID,2,VALID,0.220703,
2001-12-16, 00:43:00,VALID,919.646,VALID,0,VALID,92.9518,VALID,0.0509425,VALID,19.8871,VALID,360,VALID,0.00303819,
2001-12-16, 00:44:00,VALID,919.644,VALID,0,VALID,92.822,VALID,0.0339617,VALID,19.8774,VALID,360,VALID,0,
2001-12-16, 00:45:00,VALID,919.63,VALID,0,VALID,92.5067,VALID,0,VALID,19.8344,VALID,360,VALID,0,
2001-12-16, 00:46:00,VALID,919.628,VALID,0,VALID,92.6516,VALID,0,VALID,19.822,VALID,1,VALID,0,
2001-12-16, 00:47:01,VALID,919.596,VALID,0,VALID,93.0217,VALID,0.0339617,VALID,19.8287,VALID,14,VALID,0,
2001-12-16, 00:48:00,VALID,919.59,VALID,0,VALID,93.5609,VALID,0.0339617,VALID,19.8545,VALID,335,VALID,0.046274,
2001-12-16, 00:49:00,VALID,919.585,VALID,0,VALID,93.4108,VALID,0.0339617,VALID,19.822,VALID,333,VALID,0,
2001-12-16, 00:50:00,VALID,919.576,VALID,0,VALID,93.7668,VALID,0.0339617,VALID,19.8088,VALID,313,VALID,0.0200591,
2001-12-16, 00:51:00,VALID,919.573,VALID,0,VALID,92.967,VALID,0.0339617,VALID,19.77,VALID,2,VALID,0.292857,
2001-12-16, 00:52:00,VALID,919.549,VALID,0,VALID,93.3281,VALID,0.0339617,VALID,19.7054,VALID,337,VALID,0.776476,
2001-12-16, 00:53:00,VALID,919.537,VALID,0,VALID,93.7719,VALID,0,VALID,19.6731,VALID,14,VALID,0.808894,
2001-12-16, 00:54:00,VALID,919.509,VALID,0,VALID,94.3709,VALID,0,VALID,19.6443,VALID,18,VALID,0.895312,
2001-12-16, 00:55:00,VALID,919.478,VALID,0,VALID,94.7155,VALID,0.0169808,VALID,19.6088,VALID,21,VALID,1.07855,
2001-12-16, 00:56:00,VALID,919.44,VALID,0,VALID,94.9151,VALID,0,VALID,19.5892,VALID,21,VALID,1.07835,
2001-12-16, 00:57:00,VALID,919.42,VALID,0,VALID,94.9838,VALID,0,VALID,19.5504,VALID,24,VALID,1.24718,
2001-12-16, 00:58:00,VALID,919.392,VALID,0,VALID,95.3398,VALID,0,VALID,19.5213,VALID,32,VALID,0.771484,
2001-12-16, 00:59:00,VALID,919.391,VALID,0,VALID,95.5395,VALID,0.0339617,VALID,19.5352,VALID,26,VALID,0.542969,
2001-12-16, 01:00:00,VALID,919.368,VALID,0,VALID,95.7162,VALID,0.0169808,VALID,19.5246,VALID,50,VALID,0.303454,
2001-12-16, 01:01:00,VALID,919.352,VALID,0,VALID,95.7213,VALID,0.0339617,VALID,19.5191,VALID,358,VALID,0.310764,
2001-12-16, 01:02:00,VALID,919.322,VALID,0,VALID,95.715,VALID,0.0169808,VALID,19.4865,VALID,17,VALID,0.509766,
2001-12-16, 01:03:00,VALID,919.328,VALID,0,VALID,95.7811,VALID,0.0679233,VALID,19.4771,VALID,19,VALID,1.12981,
2001-12-16, 01:04:00,VALID,919.313,VALID,0,VALID,95.8536,VALID,0.0509425,VALID,19.444,VALID,23,VALID,1.36071,
2001-12-16, 01:05:00,VALID,919.295,VALID,0,VALID,95.6781,VALID,0.0339617,VALID,19.4279,VALID,18,VALID,0.946368,
2001-12-16, 01:06:00,VALID,919.29,VALID,0,VALID,95.5547,VALID,0,VALID,19.3767,VALID,17,VALID,0.903571,
2001-12-16, 01:07:00,VALID,919.273,VALID,0,VALID,95.3818,VALID,0.0169808,VALID,19.3124,VALID,18,VALID,1.03776,
2001-12-16, 01:08:00,VALID,919.239,VALID,0,VALID,95.6476,VALID,0,VALID,19.2957,VALID,23,VALID,1.1232,
2001-12-16, 01:09:00,VALID,919.212,VALID,0,VALID,95.7162,VALID,0,VALID,19.2766,VALID,20,VALID,1.01563,
2001-12-16, 01:10:01,VALID,919.175,VALID,0,VALID,95.9426,VALID,0.0169808,VALID,19.2733,VALID,25,VALID,0.532728,
2001-12-16, 01:11:00,VALID,919.167,VALID,0,VALID,96.1689,VALID,0.0169808,VALID,19.2634,VALID,23,VALID,0.989955,
2001-12-16, 01:12:00,VALID,919.158,VALID,0,VALID,96.3444,VALID,0.0169808,VALID,19.29,VALID,27,VALID,0.882378,
2001-12-16, 01:13:00,VALID,919.151,VALID,0,VALID,96.2363,VALID,0.0169808,VALID,19.2731,VALID,4,VALID,0.747613,
2001-12-16, 01:14:00,VALID,919.156,VALID,0,VALID,96.174,VALID,0.0339617,VALID,19.2184,VALID,19,VALID,1.03103,
2001-12-16, 01:15:00,VALID,919.134,VALID,0,VALID,96.3953,VALID,0.0169808,VALID,19.2224,VALID,13,VALID,1.0808,
2001-12-16, 01:16:00,VALID,919.131,VALID,0,VALID,96.1524,VALID,0,VALID,19.1769,VALID,10,VALID,1.11589,
2001-12-16, 01:17:01,VALID,919.119,VALID,0,VALID,96.0799,VALID,0.0169808,VALID,19.122,VALID,19,VALID,0.905165,
2001-12-16, 01:18:01,VALID,919.126,VALID,0,VALID,96.4614,VALID,0,VALID,19.1257,VALID,31,VALID,0.975361,
2001-12-16, 01:19:00,VALID,919.104,VALID,0,VALID,96.4487,VALID,0.0169808,VALID,19.1019,VALID,24,VALID,1.33616,
2001-12-16, 01:20:00,VALID,919.098,VALID,0,VALID,96.4016,VALID,0,VALID,19.0574,VALID,15,VALID,0.95777,
2001-12-16, 01:21:00,VALID,919.082,VALID,0,VALID,96.4766,VALID,0,VALID,19.0152,VALID,10,VALID,0.882143,
2001-12-16, 01:22:01,VALID,919.061,VALID,0,VALID,96.6483,VALID,0.0169808,VALID,18.9988,VALID,8,VALID,0.715278,
2001-12-16, 01:23:00,VALID,919.042,VALID,0,VALID,96.6839,VALID,0.0169808,VALID,18.9861,VALID,16,VALID,0.759415,
2001-12-16, 01:24:01,VALID,919.022,VALID,0,VALID,96.7297,VALID,0.0339617,VALID,18.9767,VALID,11,VALID,0.916518,
2001-12-16, 01:25:01,VALID,918.987,VALID,0,VALID,96.5936,VALID,0.0169808,VALID,18.9444,VALID,356,VALID,0.752745,
2001-12-16, 01:26:00,VALID,918.977,VALID,0,VALID,96.4042,VALID,0.0169808,VALID,18.8927,VALID,353,VALID,0.811161,
2001-12-16, 01:27:00,VALID,918.955,VALID,0,VALID,96.3914,VALID,0,VALID,18.8639,VALID,357,VALID,0.726345,
2001-12-16, 01:28:01,VALID,918.936,VALID,0,VALID,96.5186,VALID,0,VALID,18.8413,VALID,356,VALID,0.810547,
2001-12-16, 01:29:00,VALID,918.915,VALID,0,VALID,96.6598,VALID,0,VALID,18.8413,VALID,353,VALID,0.873481,
2001-12-16, 01:30:00,VALID,918.908,VALID,0,VALID,96.6776,VALID,0,VALID,18.8249,VALID,2,VALID,0.621299,
2001-12-16, 01:31:00,VALID,918.864,VALID,0,VALID,96.7996,VALID,0,VALID,18.8286,VALID,31,VALID,0.102648,
2001-12-16, 01:32:01,VALID,918.857,VALID,0,VALID,96.9179,VALID,0,VALID,18.8351,VALID,31,VALID,0,
2001-12-16, 01:33:00,VALID,918.843,VALID,0,VALID,96.9865,VALID,0,VALID,18.8443,VALID,30,VALID,0.127878,
2001-12-16, 01:34:00,VALID,918.849,VALID,0,VALID,96.9382,VALID,0,VALID,18.8346,VALID,27,VALID,0.129688,
2001-12-16, 01:35:00,VALID,918.842,VALID,0,VALID,97.0005,VALID,0,VALID,18.8284,VALID,10,VALID,0.171453,
2001-12-16, 01:36:00,VALID,918.821,VALID,0,VALID,97.026,VALID,0,VALID,18.8189,VALID,14,VALID,0.532366,
2001-12-16, 01:37:00,VALID,918.822,VALID,0,VALID,97.1099,VALID,0,VALID,18.8125,VALID,16,VALID,0.719618,
2001-12-16, 01:38:00,VALID,918.818,VALID,0,VALID,97.2434,VALID,0,VALID,18.8321,VALID,9,VALID,0.652644,
2001-12-16, 01:39:00,VALID,918.802,VALID,0,VALID,97.3286,VALID,0.0169808,VALID,18.8383,VALID,7,VALID,0.598437,
2001-12-16, 01:40:01,VALID,918.808,VALID,0,VALID,97.2777,VALID,0,VALID,18.8187,VALID,16,VALID,0.502745,
2001-12-16, 01:41:00,VALID,918.805,VALID,0,VALID,97.1188,VALID,-0.0169808,VALID,18.8025,VALID,19,VALID,0.566741,
2001-12-16, 01:42:00,VALID,918.808,VALID,0,VALID,97.0832,VALID,-0.0169808,VALID,18.7735,VALID,6,VALID,0.173394,
2001-12-16, 01:43:00,VALID,918.821,VALID,0,VALID,97.1722,VALID,0,VALID,18.7799,VALID,346,VALID,0.0227865,
2001-12-16, 01:44:00,VALID,918.806,VALID,0,VALID,97.1836,VALID,0,VALID,18.7866,VALID,350,VALID,0.273003,
2001-12-16, 01:45:00,VALID,918.808,VALID,0,VALID,97.1328,VALID,0,VALID,18.7935,VALID,2,VALID,0.591077,
2001-12-16, 01:46:00,VALID,918.809,VALID,0,VALID,97.0629,VALID,0,VALID,18.8,VALID,5,VALID,0.824436,
2001-12-16, 01:47:01,VALID,918.795,VALID,0,VALID,96.9764,VALID,0,VALID,18.7968,VALID,10,VALID,1.00065,
2001-12-16, 01:48:01,VALID,918.781,VALID,0,VALID,96.9548,VALID,0,VALID,18.7903,VALID,5,VALID,0.801883,
2001-12-16, 01:49:00,VALID,918.772,VALID,0,VALID,96.9331,VALID,0,VALID,18.7896,VALID,12,VALID,1.00246,
2001-12-16, 01:50:00,VALID,918.746,VALID,0,VALID,96.8696,VALID,0,VALID,18.7935,VALID,21,VALID,1.1666,
2001-12-16, 01:51:00,VALID,918.717,VALID,0,VALID,96.8518,VALID,0,VALID,18.7864,VALID,21,VALID,1.19174,
2001-12-16, 01:52:01,VALID,918.698,VALID,0,VALID,96.9064,VALID,-0.0169808,VALID,18.8162,VALID,24,VALID,0.568359,
2001-12-16, 01:53:00,VALID,918.685,VALID,0,VALID,96.8174,VALID,0,VALID,18.8095,VALID,16,VALID,0.542268,
2001-12-16, 01:54:01,VALID,918.684,VALID,0,VALID,96.6623,VALID,0.0169808,VALID,18.797,VALID,9,VALID,0.497991,
2001-12-16, 01:55:01,VALID,918.695,VALID,0,VALID,96.6636,VALID,0,VALID,18.7841,VALID,13,VALID,0.382813,
2001-12-16, 01:56:00,VALID,918.707,VALID,0,VALID,96.6318,VALID,-0.0679233,VALID,18.7855,VALID,29,VALID,0.535268,
2001-12-16, 01:57:00,VALID,918.702,VALID,0,VALID,96.7322,VALID,-0.101885,VALID,18.7982,VALID,29,VALID,0.307943,
2001-12-16, 01:58:01,VALID,918.715,VALID,0,VALID,96.6725,VALID,-0.101885,VALID,18.7982,VALID,28,VALID,0,
2001-12-16, 01:59:00,VALID,918.722,VALID,0,VALID,96.6814,VALID,-0.101885,VALID,18.8081,VALID,28,VALID,0,
2001-12-16, 02:00:00,VALID,918.737,VALID,0,VALID,96.7233,VALID,-0.0849042,VALID,18.8074,VALID,28,VALID,0,
2001-12-16, 02:01:00,VALID,918.741,VALID,0,VALID,96.6966,VALID,-0.101885,VALID,18.8208,VALID,28,VALID,0,
2001-12-16, 02:02:01,VALID,918.755,VALID,0,VALID,96.6636,VALID,-0.0849042,VALID,18.8111,VALID,28,VALID,0,
2001-12-16, 02:03:00,VALID,918.754,VALID,0,VALID,96.5542,VALID,-0.0849042,VALID,18.8047,VALID,27,VALID,0,
2001-12-16, 02:04:00,VALID,918.73,VALID,0,VALID,96.6369,VALID,-0.118866,VALID,18.7984,VALID,342,VALID,0,
2001-12-16, 02:05:00,VALID,918.686,VALID,0,VALID,96.6559,VALID,-0.0849042,VALID,18.801,VALID,272,VALID,0,
2001-12-16, 02:06:00,VALID,918.658,VALID,0,VALID,96.6737,VALID,0.0169808,VALID,18.8037,VALID,314,VALID,0,
2001-12-16, 02:07:00,VALID,918.631,VALID,0,VALID,96.7182,VALID,0,VALID,18.7873,VALID,297,VALID,0.401042,
2001-12-16, 02:08:00,VALID,918.605,VALID,0,VALID,96.7678,VALID,0,VALID,18.7647,VALID,297,VALID,0.292468,
2001-12-16, 02:09:00,VALID,918.566,VALID,0,VALID,96.8594,VALID,0.0169808,VALID,18.7518,VALID,297,VALID,0.0540179,
2001-12-16, 02:10:01,VALID,918.543,VALID,0,VALID,96.9522,VALID,-0.0169808,VALID,18.7421,VALID,297,VALID,0,
2001-12-16, 02:11:00,VALID,918.524,VALID,0,VALID,97.0845,VALID,0,VALID,18.7451,VALID,298,VALID,0.000892857,
2001-12-16, 02:12:00,VALID,918.513,VALID,0,VALID,97.2358,VALID,0.0339617,VALID,18.7615,VALID,300,VALID,0,
2001-12-16, 02:13:00,VALID,918.529,VALID,0,VALID,97.0578,VALID,0.0169808,VALID,18.7456,VALID,356,VALID,0,
2001-12-16, 02:14:00,VALID,918.516,VALID,0,VALID,96.8479,VALID,0,VALID,18.6904,VALID,43,VALID,0,
2001-12-16, 02:15:00,VALID,918.506,VALID,0,VALID,96.7297,VALID,0,VALID,18.6455,VALID,45,VALID,0,
2001-12-16, 02:16:00,VALID,918.533,VALID,0,VALID,96.7793,VALID,0,VALID,18.6099,VALID,45,VALID,0,
2001-12-16, 02:17:01,VALID,918.553,VALID,0,VALID,96.7081,VALID,-0.0169808,VALID,18.5712,VALID,45,VALID,0,
2001-12-16, 02:18:01,VALID,918.568,VALID,0,VALID,96.497,VALID,0,VALID,18.523,VALID,45,VALID,0,
2001-12-16, 02:19:00,VALID,918.572,VALID,0,VALID,96.4092,VALID,0,VALID,18.4385,VALID,45,VALID,0,
2001-12-16, 02:20:00,VALID,918.561,VALID,0,VALID,96.544,VALID,0,VALID,18.4132,VALID,45,VALID,0,
2001-12-16, 02:21:00,VALID,918.543,VALID,0,VALID,96.8416,VALID,-0.0169808,VALID,18.4104,VALID,45,VALID,0,
2001-12-16, 02:22:01,VALID,918.511,VALID,0,VALID,97.0857,VALID,0,VALID,18.4162,VALID,57,VALID,0,
2001-12-16, 02:23:00,VALID,918.498,VALID,0,VALID,97.1646,VALID,-0.0339617,VALID,18.4129,VALID,76,VALID,0,
2001-12-16, 02:24:01,VALID,918.483,VALID,0,VALID,97.0845,VALID,-0.0679233,VALID,18.4007,VALID,76,VALID,0,
2001-12-16, 02:25:01,VALID,918.48,VALID,0,VALID,97.1124,VALID,-0.0339617,VALID,18.391,VALID,89,VALID,0,
2001-12-16, 02:26:00,VALID,918.457,VALID,0,VALID,97.218,VALID,-0.0339617,VALID,18.388,VALID,109,VALID,0.321875,
2001-12-16, 02:27:01,VALID,918.467,VALID,0,VALID,97.3235,VALID,-0.0339617,VALID,18.4005,VALID,109,VALID,0.373481,
2001-12-16, 02:28:01,VALID,918.476,VALID,0,VALID,97.2867,VALID,-0.0509425,VALID,18.3942,VALID,109,VALID,0.540148,
2001-12-16, 02:29:01,VALID,918.477,VALID,0,VALID,97.3032,VALID,-0.0849042,VALID,18.3684,VALID,106,VALID,0.712674,
2001-12-16, 02:30:00,VALID,918.492,VALID,0,VALID,97.3006,VALID,-0.0849042,VALID,18.356,VALID,100,VALID,0.747327,
2001-12-16, 02:31:01,VALID,918.495,VALID,0,VALID,97.3871,VALID,-0.0679233,VALID,18.3269,VALID,102,VALID,0.949653,
2001-12-16, 02:32:01,VALID,918.503,VALID,0,VALID,97.513,VALID,-0.0679233,VALID,18.3038,VALID,103,VALID,0.925347,
2001-12-16, 02:33:00,VALID,918.504,VALID,0,VALID,97.6503,VALID,-0.0679233,VALID,18.2937,VALID,105,VALID,0.928085,
2001-12-16, 02:34:00,VALID,918.513,VALID,0,VALID,97.9174,VALID,-0.0509425,VALID,18.3329,VALID,105,VALID,0.797768,
2001-12-16, 02:35:00,VALID,918.509,VALID,0,VALID,97.9759,VALID,-0.0509425,VALID,18.3721,VALID,124,VALID,0.516047,
2001-12-16, 02:36:00,VALID,918.477,VALID,0,VALID,97.9619,VALID,0.0679233,VALID,18.3737,VALID,138,VALID,0.479688,
2001-12-16, 02:37:00,VALID,918.457,VALID,0,VALID,97.8729,VALID,0.0169808,VALID,18.3836,VALID,148,VALID,0.400174,
2001-12-16, 02:38:01,VALID,918.425,VALID,0,VALID,97.8436,VALID,0.0169808,VALID,18.3673,VALID,140,VALID,0.267428,
2001-12-16, 02:39:00,VALID,918.407,VALID,0,VALID,97.8029,VALID,0.0169808,VALID,18.361,VALID,138,VALID,0.0207589,
2001-12-16, 02:40:01,VALID,918.385,VALID,0,VALID,97.6707,VALID,0,VALID,18.358,VALID,138,VALID,0,
2001-12-16, 02:41:01,VALID,918.387,VALID,0,VALID,97.5766,VALID,0.0169808,VALID,18.3193,VALID,138,VALID,0,
2001-12-16, 02:42:00,VALID,918.357,VALID,0,VALID,97.3782,VALID,0,VALID,18.2676,VALID,138,VALID,0,
2001-12-16, 02:43:01,VALID,918.342,VALID,0,VALID,97.1989,VALID,0.0339617,VALID,18.2127,VALID,138,VALID,0,
2001-12-16, 02:44:01,VALID,918.323,VALID,0,VALID,97.0361,VALID,0.0509425,VALID,18.161,VALID,126,VALID,0,
2001-12-16, 02:45:01,VALID,918.303,VALID,0,VALID,96.8276,VALID,0.0169808,VALID,18.0995,VALID,52,VALID,0,
2001-12-16, 02:46:00,VALID,918.277,VALID,0,VALID,96.6801,VALID,0.0339617,VALID,18.0319,VALID,35,VALID,0,
2001-12-16, 02:47:01,VALID,918.268,VALID,0,VALID,96.8772,VALID,0,VALID,17.9996,VALID,29,VALID,0,
2001-12-16, 02:48:01,VALID,918.254,VALID,0,VALID,97.2332,VALID,0,VALID,18.0093,VALID,29,VALID,0,
2001-12-16, 02:49:01,VALID,918.25,VALID,0,VALID,97.4011,VALID,0.0339617,VALID,18.0383,VALID,29,VALID,0,
2001-12-16, 02:50:01,VALID,918.231,VALID,0,VALID,97.4761,VALID,0.0509425,VALID,18.0388,VALID,28,VALID,0,
2001-12-16, 02:51:01,VALID,918.215,VALID,0,VALID,97.4151,VALID,0.0169808,VALID,18.0123,VALID,18,VALID,0,
2001-12-16, 02:52:01,VALID,918.19,VALID,0,VALID,97.466,VALID,0.0509425,VALID,18.0056,VALID,17,VALID,0,
2001-12-16, 02:53:01,VALID,918.162,VALID,0,VALID,97.6287,VALID,0.0339617,VALID,18.0291,VALID,16,VALID,0,
2001-12-16, 02:54:01,VALID,918.141,VALID,0,VALID,97.8576,VALID,0,VALID,18.0741,VALID,10,VALID,0,
2001-12-16, 02:55:01,VALID,918.133,VALID,0,VALID,97.9517,VALID,0.0169808,VALID,18.0962,VALID,6,VALID,0,
2001-12-16, 02:56:01,VALID,918.116,VALID,0,VALID,97.8703,VALID,0.0169808,VALID,18.1327,VALID,4,VALID,0,
2001-12-16, 02:57:01,VALID,918.108,VALID,0,VALID,97.794,VALID,0.0169808,VALID,18.1027,VALID,4,VALID,0,
2001-12-16, 02:58:01,VALID,918.084,VALID,0,VALID,97.9644,VALID,0.0509425,VALID,18.1546,VALID,4,VALID,0,
2001-12-16, 02:59:01,VALID,918.072,VALID,0,VALID,98.0178,VALID,0.0169808,VALID,18.203,VALID,4,VALID,0,
2001-12-16, 03:00:01,VALID,918.067,VALID,0,VALID,98.0242,VALID,0.0169808,VALID,18.2319,VALID,10,VALID,0,
2001-12-16, 03:01:01,VALID,918.046,VALID,0,VALID,98.1653,VALID,0.0169808,VALID,18.3034,VALID,29,VALID,0,
2001-12-16, 03:02:01,VALID,918.024,VALID,0,VALID,98.2454,VALID,0.0339617,VALID,18.3643,VALID,29,VALID,0,
2001-12-16, 03:03:01,VALID,918.009,VALID,0,VALID,98.178,VALID,0.0339617,VALID,18.4095,VALID,16,VALID,0,
2001-12-16, 03:04:01,VALID,918.007,VALID,0,VALID,97.9275,VALID,0.0509425,VALID,18.4062,VALID,14,VALID,0,
2001-12-16, 03:05:01,VALID,918.006,VALID,0,VALID,97.9046,VALID,0.0339617,VALID,18.4258,VALID,14,VALID,0,
2001-12-16, 03:06:00,VALID,917.974,VALID,0,VALID,97.8322,VALID,0.0509425,VALID,18.4455,VALID,14,VALID,0,
2001-12-16, 03:07:00,VALID,917.975,VALID,0,VALID,97.761,VALID,0.0509425,VALID,18.4551,VALID,14,VALID,0,
2001-12-16, 03:08:00,VALID,917.933,VALID,0,VALID,97.5562,VALID,0.0339617,VALID,18.442,VALID,23,VALID,0,
2001-12-16, 03:09:00,VALID,917.904,VALID,0,VALID,97.0959,VALID,0.0509425,VALID,18.3479,VALID,38,VALID,0,
2001-12-16, 03:10:00,VALID,917.867,VALID,0,VALID,97.307,VALID,0,VALID,18.358,VALID,56,VALID,0.591005,
2001-12-16, 03:11:00,VALID,917.85,VALID,0,VALID,97.4748,VALID,0.0679233,VALID,18.4062,VALID,64,VALID,0.673214,
2001-12-16, 03:12:00,VALID,917.833,VALID,0,VALID,97.3579,VALID,0.0509425,VALID,18.4321,VALID,81,VALID,0.620877,
2001-12-16, 03:13:00,VALID,917.825,VALID,0,VALID,97.293,VALID,0.0679233,VALID,18.4646,VALID,51,VALID,0.244141,
2001-12-16, 03:14:00,VALID,917.821,VALID,0,VALID,97.1976,VALID,0.0169808,VALID,18.5004,VALID,50,VALID,0,
2001-12-16, 03:15:00,VALID,917.808,VALID,0,VALID,97.0298,VALID,0.0509425,VALID,18.507,VALID,50,VALID,0,
2001-12-16, 03:16:00,VALID,917.8,VALID,0,VALID,96.8785,VALID,0,VALID,18.5068,VALID,38,VALID,0,
2001-12-16, 03:17:00,VALID,917.792,VALID,0,VALID,96.8441,VALID,0.0509425,VALID,18.5324,VALID,5,VALID,0.00976563,
2001-12-16, 03:18:00,VALID,917.79,VALID,0,VALID,96.7399,VALID,0.0509425,VALID,18.5555,VALID,5,VALID,0.220954,
2001-12-16, 03:19:00,VALID,917.794,VALID,0,VALID,96.4741,VALID,0.0509425,VALID,18.5483,VALID,5,VALID,0.426562,
2001-12-16, 03:20:00,VALID,917.801,VALID,0,VALID,96.427,VALID,0.0169808,VALID,18.5451,VALID,8,VALID,0.847551,
2001-12-16, 03:21:00,VALID,917.819,VALID,0,VALID,96.3864,VALID,0,VALID,18.5659,VALID,22,VALID,0.996205,
2001-12-16, 03:22:00,VALID,917.818,VALID,0,VALID,96.5008,VALID,0,VALID,18.6111,VALID,23,VALID,0.981988,
2001-12-16, 03:23:00,VALID,917.807,VALID,0,VALID,96.4461,VALID,0,VALID,18.6429,VALID,27,VALID,0.764223,
2001-12-16, 03:24:00,VALID,917.8,VALID,0,VALID,96.2694,VALID,0,VALID,18.6628,VALID,28,VALID,0.622545,
2001-12-16, 03:25:00,VALID,917.779,VALID,0,VALID,96.2223,VALID,0,VALID,18.6655,VALID,23,VALID,0.463471,
2001-12-16, 03:26:00,VALID,917.766,VALID,0,VALID,96.1727,VALID,0,VALID,18.6822,VALID,19,VALID,0.0308036,
2001-12-16, 03:27:00,VALID,917.738,VALID,0,VALID,96.0303,VALID,-0.0339617,VALID,18.6787,VALID,19,VALID,0,
2001-12-16, 03:28:00,VALID,917.712,VALID,0,VALID,96.0367,VALID,-0.0169808,VALID,18.6789,VALID,19,VALID,0.165365,
2001-12-16, 03:29:00,VALID,917.682,VALID,0,VALID,95.996,VALID,-0.0339617,VALID,18.6757,VALID,18,VALID,0.0572917,
2001-12-16, 03:30:00,VALID,917.656,VALID,0,VALID,95.7862,VALID,0,VALID,18.6531,VALID,10,VALID,0,
2001-12-16, 03:31:00,VALID,917.641,VALID,0,VALID,95.7289,VALID,-0.0169808,VALID,18.6171,VALID,360,VALID,0,
2001-12-16, 03:32:00,VALID,917.631,VALID,0,VALID,95.7505,VALID,0,VALID,18.5848,VALID,354,VALID,0.257378,
2001-12-16, 03:33:00,VALID,917.63,VALID,0,VALID,96.043,VALID,-0.0509425,VALID,18.6016,VALID,350,VALID,0.471554,
2001-12-16, 03:34:00,VALID,917.641,VALID,0,VALID,96.2134,VALID,-0.0339617,VALID,18.6339,VALID,349,VALID,0.0752232,
2001-12-16, 03:35:00,VALID,917.623,VALID,0,VALID,96.2096,VALID,0,VALID,18.6466,VALID,349,VALID,0,
2001-12-16, 03:36:00,VALID,917.592,VALID,0,VALID,96.1091,VALID,0,VALID,18.6402,VALID,349,VALID,0,
2001-12-16, 03:37:00,VALID,917.556,VALID,0,VALID,96.0812,VALID,-0.0339617,VALID,18.6302,VALID,359,VALID,0,
2001-12-16, 03:38:00,VALID,917.517,VALID,0,VALID,96.015,VALID,0,VALID,18.6173,VALID,10,VALID,0,
2001-12-16, 03:39:00,VALID,917.501,VALID,0,VALID,96.0659,VALID,-0.0169808,VALID,18.6012,VALID,10,VALID,0,
2001-12-16, 03:40:00,VALID,917.501,VALID,0,VALID,96.291,VALID,0,VALID,18.5977,VALID,10,VALID,0,
2001-12-16, 03:41:00,VALID,917.532,VALID,0,VALID,96.3482,VALID,-0.0339617,VALID,18.6206,VALID,10,VALID,0,
2001-12-16, 03:42:00,VALID,917.541,VALID,0,VALID,96.3329,VALID,0,VALID,18.6339,VALID,10,VALID,0,